| time (UTC) | temp F | wind direction | speed MPH | gust MPH | rain 1hr in | rain 24hr in | rain mn in | humidity % | barometer mb |
| 20260510165012 | 67 | 235 | 6.0 | 10.0 | 0.00 | 0.00 | 0.00 | 71 | 1014.0 |
| 20260510164528 | 66 | 240 | 5.0 | 9.0 | 0.00 | 0.00 | 0.00 | 72 | 1014.0 |
| 20260510164013 | 65 | 222 | 5.0 | 9.0 | 0.00 | 0.00 | 0.00 | 72 | 1014.0 |
| 20260510163515 | 65 | 254 | 4.0 | 10.0 | 0.00 | 0.00 | 0.00 | 74 | 1013.9 |
| 20260510163030 | 64 | 232 | 6.0 | 10.0 | 0.00 | 0.00 | 0.00 | 75 | 1014.0 |
| 20260510162517 | 64 | 249 | 6.0 | 10.0 | 0.00 | 0.00 | 0.00 | 74 | 1014.0 |
| 20260510162014 | 64 | 229 | 6.0 | 10.0 | 0.00 | 0.00 | 0.00 | 76 | 1014.0 |
| 20260510161530 | 63 | 252 | 7.0 | 10.0 | 0.00 | 0.00 | 0.00 | 75 | 1014.0 |
| 20260510161012 | 63 | 223 | 6.0 | 10.0 | 0.00 | 0.00 | 0.00 | 76 | 1013.9 |
| 20260510160514 | 62 | 256 | 6.0 | 10.0 | 0.00 | 0.00 | 0.00 | 76 | 1014.0 |
| 20260510160031 | 62 | 238 | 6.0 | 9.0 | 0.00 | 0.00 | 0.00 | 78 | 1013.9 |
| 20260510155514 | 62 | 227 | 4.0 | 8.0 | 0.00 | 0.00 | 0.00 | 78 | 1013.9 |
| 20260510155014 | 61 | 214 | 4.0 | 8.0 | 0.00 | 0.00 | 0.00 | 77 | 1014.0 |
| 20260510154528 | 61 | 263 | 4.0 | 8.0 | 0.00 | 0.00 | 0.00 | 79 | 1013.9 |
| 20260510154011 | 60 | 269 | 5.0 | 9.0 | 0.00 | 0.00 | 0.00 | 79 | 1013.9 |
| 20260510153519 | 60 | 289 | 5.0 | 10.0 | 0.00 | 0.00 | 0.00 | 80 | 1013.9 |
| 20260510153040 | 59 | 259 | 5.0 | 10.0 | 0.00 | 0.00 | 0.00 | 81 | 1013.9 |
| 20260510152514 | 59 | 250 | 6.0 | 10.0 | 0.00 | 0.00 | 0.00 | 81 | 1013.9 |
| 20260510152012 | 59 | 242 | 6.0 | 10.0 | 0.00 | 0.00 | 0.00 | 82 | 1013.8 |
| 20260510151533 | 58 | 257 | 7.0 | 10.0 | 0.00 | 0.00 | 0.00 | 82 | 1013.8 |
| 20260510151011 | 58 | 264 | 6.0 | 12.0 | 0.00 | 0.00 | 0.00 | 83 | 1013.7 |
| 20260510150518 | 58 | 283 | 5.0 | 12.0 | 0.00 | 0.00 | 0.00 | 84 | 1013.8 |
| 20260510150034 | 57 | 242 | 7.0 | 12.0 | 0.00 | 0.00 | 0.00 | 83 | 1013.7 |
| 20260510145514 | 57 | 236 | 5.0 | 9.0 | 0.00 | 0.00 | 0.00 | 84 | 1013.6 |
| 20260510145013 | 57 | 250 | 5.0 | 9.0 | 0.00 | 0.00 | 0.00 | 84 | 1013.6 |
| 20260510144534 | 57 | 244 | 4.0 | 8.0 | 0.00 | 0.00 | 0.00 | 85 | 1013.6 |
| 20260510144015 | 57 | 205 | 4.0 | 8.0 | 0.00 | 0.00 | 0.00 | 84 | 1013.5 |
| 20260510143517 | 56 | 236 | 3.0 | 8.0 | 0.00 | 0.00 | 0.00 | 85 | 1013.5 |
| 20260510143030 | 56 | 221 | 3.0 | 8.0 | 0.00 | 0.00 | 0.00 | 85 | 1013.5 |
| 20260510142515 | 56 | 227 | 1.0 | 5.0 | 0.00 | 0.00 | 0.00 | 86 | 1013.5 |
| 20260510142013 | 55 | 223 | 1.0 | 4.0 | 0.00 | 0.00 | 0.00 | 87 | 1013.4 |
| 20260510141533 | 55 | 208 | 1.0 | 3.0 | 0.00 | 0.00 | 0.00 | 87 | 1013.4 |
| 20260510141013 | 55 | 0 | 0.0 | 2.0 | 0.00 | 0.00 | 0.00 | 87 | 1013.3 |
| 20260510140512 | 54 | 0 | 0.0 | 3.0 | 0.00 | 0.00 | 0.00 | 87 | 1013.3 |
| 20260510140027 | 54 | 0 | 1.0 | 5.0 | 0.00 | 0.00 | 0.00 | 87 | 1013.3 |
| 20260510135514 | 54 | 244 | 2.0 | 6.0 | 0.00 | 0.00 | 0.00 | 88 | 1013.3 |
| 20260510135015 | 54 | 234 | 3.0 | 6.0 | 0.00 | 0.00 | 0.00 | 88 | 1013.1 |
| 20260510134531 | 54 | 242 | 3.0 | 6.0 | 0.00 | 0.00 | 0.00 | 88 | 1013.1 |
| 20260510134014 | 54 | 209 | 2.0 | 4.0 | 0.00 | 0.00 | 0.00 | 87 | 1013.0 |
| 20260510133513 | 54 | 228 | 1.0 | 4.0 | 0.00 | 0.00 | 0.00 | 87 | 1012.9 |
| 20260510133028 | 54 | 0 | 1.0 | 4.0 | 0.00 | 0.00 | 0.00 | 87 | 1013.0 |
| 20260510132515 | 54 | 225 | 0.0 | 3.0 | 0.00 | 0.00 | 0.00 | 87 | 1012.8 |
| 20260510132014 | 54 | 0 | 0.0 | 3.0 | 0.00 | 0.00 | 0.00 | 87 | 1012.8 |
| 20260510131530 | 54 | 220 | 2.0 | 3.0 | 0.00 | 0.00 | 0.00 | 87 | 1012.9 |
| 20260510131012 | 54 | 0 | 0.0 | 3.0 | 0.00 | 0.00 | 0.00 | 87 | 1012.8 |
| 20260510130514 | 54 | 211 | 1.0 | 4.0 | 0.00 | 0.00 | 0.00 | 87 | 1012.9 |
| 20260510130041 | 53 | 238 | 2.0 | 4.0 | 0.00 | 0.00 | 0.00 | 87 | 1012.9 |
| 20260510125515 | 53 | 241 | 1.0 | 4.0 | 0.00 | 0.00 | 0.00 | 87 | 1012.8 |
| 20260510125018 | 53 | 0 | 1.0 | 4.0 | 0.00 | 0.00 | 0.00 | 88 | 1012.8 |
| 20260510124528 | 53 | 246 | 1.0 | 3.0 | 0.00 | 0.00 | 0.00 | 88 | 1012.8 |
| 20260510124014 | 53 | 0 | 0.0 | 3.0 | 0.00 | 0.00 | 0.00 | 88 | 1012.7 |
| 20260510123514 | 53 | 0 | 0.0 | 2.0 | 0.00 | 0.00 | 0.00 | 88 | 1012.7 |
| 20260510123030 | 53 | 0 | 0.0 | 0.0 | 0.00 | 0.00 | 0.00 | 88 | 1012.8 |
| 20260510122512 | 53 | 0 | 0.0 | 0.0 | 0.00 | 0.00 | 0.00 | 87 | 1012.8 |
| 20260510122013 | 54 | 0 | 0.0 | 1.0 | 0.00 | 0.00 | 0.00 | 87 | 1012.7 |
| 20260510121532 | 54 | 0 | 0.0 | 1.0 | 0.00 | 0.00 | 0.00 | 86 | 1012.8 |
| 20260510121013 | 54 | 0 | 0.0 | 3.0 | 0.00 | 0.00 | 0.00 | 87 | 1012.7 |
| 20260510120513 | 54 | 0 | 0.0 | 3.0 | 0.00 | 0.00 | 0.00 | 87 | 1012.7 |
| 20260510120031 | 54 | 227 | 1.0 | 3.0 | 0.00 | 0.00 | 0.00 | 87 | 1012.6 |
| 20260510115513 | 54 | 225 | 0.0 | 5.0 | 0.00 | 0.00 | 0.00 | 86 | 1012.7 |
| 20260510115014 | 55 | 215 | 1.0 | 6.0 | 0.00 | 0.00 | 0.00 | 86 | 1012.5 |
| 20260510114530 | 55 | 221 | 2.0 | 8.0 | 0.00 | 0.00 | 0.00 | 86 | 1012.5 |
| 20260510114013 | 55 | 229 | 3.0 | 8.0 | 0.00 | 0.00 | 0.00 | 86 | 1012.4 |
| 20260510113512 | 55 | 233 | 4.0 | 7.0 | 0.00 | 0.00 | 0.00 | 86 | 1012.5 |
| 20260510113030 | 55 | 240 | 3.0 | 6.0 | 0.00 | 0.00 | 0.00 | 86 | 1012.6 |
| 20260510112513 | 55 | 217 | 2.0 | 5.0 | 0.00 | 0.00 | 0.00 | 86 | 1012.7 |
| 20260510112013 | 55 | 205 | 2.0 | 6.0 | 0.00 | 0.00 | 0.00 | 87 | 1012.5 |
| 20260510111530 | 55 | 219 | 3.0 | 7.0 | 0.00 | 0.00 | 0.00 | 87 | 1012.5 |
| 20260510111012 | 55 | 225 | 3.0 | 7.0 | 0.00 | 0.00 | 0.00 | 88 | 1012.4 |
| 20260510110514 | 54 | 217 | 3.0 | 5.0 | 0.00 | 0.00 | 0.00 | 89 | 1012.4 |
| 20260510110040 | 53 | 177 | 1.0 | 4.0 | 0.00 | 0.00 | 0.00 | 89 | 1012.4 |
| 20260510105513 | 53 | 177 | 0.0 | 2.0 | 0.00 | 0.00 | 0.00 | 87 | 1012.3 |
| 20260510105014 | 54 | 0 | 0.0 | 2.0 | 0.00 | 0.00 | 0.00 | 87 | 1012.5 |
| 20260510104527 | 54 | 201 | 0.0 | 2.0 | 0.00 | 0.00 | 0.00 | 87 | 1012.4 |
| 20260510104017 | 54 | 0 | 0.0 | 3.0 | 0.00 | 0.00 | 0.00 | 86 | 1012.4 |
| 20260510103512 | 55 | 0 | 0.0 | 3.0 | 0.00 | 0.00 | 0.00 | 86 | 1012.4 |
| 20260510103027 | 55 | 257 | 0.0 | 3.0 | 0.00 | 0.00 | 0.00 | 86 | 1012.4 |
| 20260510102514 | 56 | 0 | 0.0 | 3.0 | 0.00 | 0.00 | 0.00 | 86 | 1012.3 |
| 20260510102014 | 55 | 249 | 1.0 | 3.0 | 0.00 | 0.00 | 0.00 | 86 | 1012.3 |
| 20260510101534 | 55 | 254 | 0.0 | 2.0 | 0.00 | 0.00 | 0.00 | 86 | 1012.3 |
| 20260510101014 | 56 | 0 | 0.0 | 3.0 | 0.00 | 0.00 | 0.00 | 86 | 1012.3 |
| 20260510100517 | 56 | 238 | 0.0 | 3.0 | 0.00 | 0.00 | 0.00 | 86 | 1012.3 |
| 20260510100027 | 56 | 216 | 2.0 | 3.0 | 0.00 | 0.00 | 0.00 | 86 | 1012.2 |
| 20260510095516 | 56 | 0 | 0.0 | 3.0 | 0.00 | 0.00 | 0.00 | 86 | 1012.2 |
| 20260510095013 | 56 | 0 | 1.0 | 3.0 | 0.00 | 0.00 | 0.00 | 86 | 1012.1 |
| 20260510094530 | 56 | 221 | 1.0 | 3.0 | 0.00 | 0.00 | 0.00 | 86 | 1012.1 |
| 20260510094013 | 56 | 202 | 2.0 | 4.0 | 0.00 | 0.00 | 0.00 | 85 | 1012.1 |
| 20260510093514 | 56 | 211 | 2.0 | 4.0 | 0.00 | 0.00 | 0.00 | 85 | 1012.2 |
| 20260510093032 | 56 | 232 | 2.0 | 7.0 | 0.00 | 0.00 | 0.00 | 85 | 1012.2 |
| 20260510092515 | 56 | 230 | 3.0 | 9.0 | 0.00 | 0.00 | 0.00 | 85 | 1012.1 |
| 20260510092012 | 57 | 236 | 4.0 | 9.0 | 0.00 | 0.00 | 0.00 | 85 | 1012.2 |
| 20260510091534 | 57 | 239 | 5.0 | 9.0 | 0.00 | 0.00 | 0.00 | 84 | 1012.1 |
| 20260510091013 | 57 | 252 | 5.0 | 9.0 | 0.00 | 0.00 | 0.00 | 84 | 1012.1 |
| 20260510090513 | 57 | 248 | 6.0 | 10.0 | 0.00 | 0.00 | 0.00 | 84 | 1012.1 |
| 20260510090031 | 57 | 246 | 6.0 | 10.0 | 0.00 | 0.00 | 0.00 | 84 | 1012.1 |
| 20260510085516 | 57 | 246 | 6.0 | 9.0 | 0.00 | 0.00 | 0.00 | 84 | 1012.1 |
| 20260510085013 | 57 | 252 | 4.0 | 8.0 | 0.00 | 0.00 | 0.00 | 84 | 1012.1 |
| 20260510084534 | 57 | 242 | 3.0 | 5.0 | 0.00 | 0.00 | 0.00 | 84 | 1012.0 |
| 20260510084017 | 57 | 223 | 3.0 | 5.0 | 0.00 | 0.00 | 0.00 | 83 | 1012.1 |
| 20260510083513 | 57 | 237 | 2.0 | 3.0 | 0.00 | 0.00 | 0.00 | 83 | 1012.0 |
| 20260510083028 | 57 | 264 | 1.0 | 4.0 | 0.00 | 0.00 | 0.00 | 82 | 1012.0 |
| 20260510082512 | 58 | 237 | 1.0 | 5.0 | 0.00 | 0.00 | 0.00 | 82 | 1012.1 |
| 20260510082011 | 58 | 228 | 3.0 | 5.0 | 0.00 | 0.00 | 0.00 | 82 | 1012.0 |
| 20260510081534 | 58 | 243 | 3.0 | 5.0 | 0.00 | 0.00 | 0.00 | 81 | 1012.1 |
| 20260510081013 | 58 | 221 | 3.0 | 6.0 | 0.00 | 0.00 | 0.00 | 81 | 1012.1 |
| 20260510080512 | 59 | 213 | 3.0 | 6.0 | 0.00 | 0.00 | 0.00 | 81 | 1012.0 |
| 20260510080030 | 59 | 228 | 3.0 | 6.0 | 0.00 | 0.00 | 0.00 | 81 | 1012.0 |
| 20260510075515 | 59 | 238 | 3.0 | 6.0 | 0.00 | 0.00 | 0.00 | 80 | 1012.0 |
| 20260510075015 | 59 | 182 | 4.0 | 6.0 | 0.00 | 0.00 | 0.00 | 79 | 1012.0 |
| 20260510074529 | 59 | 209 | 3.0 | 6.0 | 0.00 | 0.00 | 0.00 | 80 | 1012.1 |
| 20260510074020 | 59 | 208 | 4.0 | 7.0 | 0.00 | 0.00 | 0.00 | 80 | 1012.0 |
| 20260510073516 | 59 | 235 | 3.0 | 7.0 | 0.00 | 0.00 | 0.00 | 80 | 1012.0 |
| 20260510073027 | 59 | 225 | 3.0 | 7.0 | 0.00 | 0.00 | 0.00 | 79 | 1012.0 |
| 20260510072513 | 59 | 236 | 4.0 | 8.0 | 0.00 | 0.00 | 0.00 | 80 | 1012.0 |
| 20260510072016 | 60 | 227 | 5.0 | 10.0 | 0.00 | 0.00 | 0.00 | 79 | 1012.0 |
| 20260510071530 | 60 | 240 | 6.0 | 10.0 | 0.00 | 0.00 | 0.00 | 79 | 1012.0 |
| 20260510071013 | 60 | 242 | 7.0 | 11.0 | 0.00 | 0.00 | 0.00 | 79 | 1012.0 |
| 20260510070513 | 60 | 234 | 7.0 | 11.0 | 0.00 | 0.00 | 0.00 | 79 | 1012.0 |
| 20260510070036 | 60 | 227 | 5.0 | 9.0 | 0.00 | 0.00 | 0.00 | 79 | 1012.1 |
| 20260510065513 | 60 | 234 | 3.0 | 8.0 | 0.00 | 0.00 | 0.00 | 78 | 1012.2 |
| 20260510065016 | 60 | 238 | 3.0 | 8.0 | 0.00 | 0.00 | 0.00 | 78 | 1012.2 |
| 20260510064534 | 61 | 219 | 5.0 | 8.0 | 0.00 | 0.00 | 0.00 | 78 | 1012.1 |
| 20260510064013 | 61 | 213 | 4.0 | 6.0 | 0.00 | 0.00 | 0.00 | 78 | 1012.2 |
| 20260510063511 | 61 | 236 | 3.0 | 7.0 | 0.00 | 0.00 | 0.00 | 77 | 1012.1 |
| 20260510063031 | 61 | 205 | 3.0 | 7.0 | 0.00 | 0.00 | 0.00 | 76 | 1012.2 |
| 20260510062515 | 61 | 221 | 3.0 | 7.0 | 0.00 | 0.00 | 0.00 | 75 | 1012.3 |
| 20260510062011 | 61 | 205 | 3.0 | 6.0 | 0.00 | 0.00 | 0.00 | 76 | 1012.2 |
| 20260510061528 | 61 | 195 | 3.0 | 6.0 | 0.00 | 0.00 | 0.00 | 75 | 1012.3 |
| 20260510061011 | 61 | 193 | 3.0 | 6.0 | 0.00 | 0.00 | 0.00 | 76 | 1012.3 |
| 20260510060516 | 61 | 190 | 3.0 | 6.0 | 0.00 | 0.00 | 0.00 | 76 | 1012.3 |
| 20260510060032 | 61 | 196 | 3.0 | 5.0 | 0.00 | 0.00 | 0.00 | 76 | 1012.2 |
| 20260510055513 | 62 | 200 | 3.0 | 5.0 | 0.00 | 0.00 | 0.00 | 76 | 1012.1 |
| 20260510055013 | 62 | 182 | 3.0 | 5.0 | 0.00 | 0.00 | 0.00 | 75 | 1012.2 |
| 20260510054532 | 62 | 198 | 1.0 | 5.0 | 0.00 | 0.00 | 0.00 | 75 | 1012.1 |
| 20260510054016 | 62 | 192 | 2.0 | 6.0 | 0.00 | 0.00 | 0.00 | 75 | 1012.1 |
| 20260510053514 | 62 | 199 | 3.0 | 6.0 | 0.00 | 0.00 | 0.00 | 75 | 1012.1 |
| 20260510053030 | 63 | 166 | 3.0 | 6.0 | 0.00 | 0.00 | 0.00 | 74 | 1012.2 |
| 20260510052511 | 63 | 175 | 2.0 | 5.0 | 0.00 | 0.00 | 0.00 | 74 | 1012.1 |
| 20260510052014 | 63 | 0 | 0.0 | 4.0 | 0.00 | 0.00 | 0.00 | 73 | 1012.2 |
| 20260510051529 | 63 | 0 | 0.0 | 4.0 | 0.00 | 0.00 | 0.00 | 74 | 1012.1 |
| 20260510051014 | 63 | 196 | 2.0 | 4.0 | 0.00 | 0.00 | 0.00 | 73 | 1012.1 |
| 20260510050513 | 64 | 175 | 1.0 | 4.0 | 0.00 | 0.00 | 0.00 | 73 | 1012.1 |
| 20260510050029 | 64 | 0 | 0.0 | 4.0 | 0.00 | 0.00 | 0.00 | 73 | 1012.1 |
| 20260510045519 | 63 | 180 | 0.0 | 4.0 | 0.00 | 0.00 | 0.00 | 74 | 1012.1 |
| 20260510045014 | 63 | 99 | 0.0 | 3.0 | 0.00 | 0.00 | 0.00 | 75 | 1012.1 |
| 20260510044528 | 64 | 0 | 0.0 | 5.0 | 0.00 | 0.00 | 0.00 | 73 | 1012.0 |
| 20260510044013 | 65 | 0 | 0.0 | 9.0 | 0.00 | 0.00 | 0.00 | 70 | 1011.9 |
| 20260510043513 | 66 | 202 | 3.0 | 9.0 | 0.00 | 0.00 | 0.00 | 70 | 1011.7 |
| 20260510043030 | 66 | 270 | 2.0 | 6.0 | 0.00 | 0.00 | 0.00 | 70 | 1011.6 |
| 20260510042513 | 66 | 211 | 2.0 | 6.0 | 0.00 | 0.00 | 0.00 | 71 | 1011.5 |
| 20260510042017 | 66 | 217 | 3.0 | 5.0 | 0.00 | 0.00 | 0.00 | 71 | 1011.4 |
| 20260510041529 | 66 | 209 | 2.0 | 4.0 | 0.00 | 0.00 | 0.00 | 71 | 1011.4 |
| 20260510041015 | 67 | 219 | 2.0 | 7.0 | 0.00 | 0.00 | 0.00 | 69 | 1011.4 |
| 20260510040514 | 67 | 245 | 4.0 | 11.0 | 0.00 | 0.00 | 0.00 | 69 | 1011.3 |
| 20260510040030 | 67 | 240 | 6.0 | 11.0 | 0.00 | 0.00 | 0.00 | 68 | 1011.3 |
| 20260510035514 | 68 | 253 | 6.0 | 11.0 | 0.00 | 0.00 | 0.00 | 68 | 1011.2 |
| 20260510035011 | 68 | 232 | 4.0 | 8.0 | 0.00 | 0.00 | 0.00 | 68 | 1011.1 |
| 20260510034530 | 68 | 238 | 4.0 | 10.0 | 0.00 | 0.00 | 0.00 | 68 | 1011.0 |
| 20260510034014 | 68 | 232 | 5.0 | 10.0 | 0.00 | 0.00 | 0.00 | 67 | 1011.0 |
| 20260510033513 | 69 | 252 | 6.0 | 10.0 | 0.00 | 0.00 | 0.00 | 67 | 1011.0 |
| 20260510033030 | 69 | 215 | 4.0 | 10.0 | 0.00 | 0.00 | 0.00 | 66 | 1011.0 |
| 20260510032514 | 70 | 249 | 6.0 | 11.0 | 0.00 | 0.00 | 0.00 | 66 | 1010.9 |
| 20260510032012 | 70 | 231 | 7.0 | 11.0 | 0.00 | 0.00 | 0.00 | 66 | 1010.9 |
| 20260510031530 | 71 | 237 | 7.0 | 11.0 | 0.00 | 0.00 | 0.00 | 68 | 1010.8 |
| 20260510031014 | 71 | 240 | 4.0 | 8.0 | 0.00 | 0.00 | 0.00 | 68 | 1010.8 |
| 20260510030514 | 72 | 219 | 4.0 | 8.0 | 0.00 | 0.00 | 0.00 | 69 | 1010.8 |
| 20260510030028 | 72 | 234 | 3.0 | 7.0 | 0.00 | 0.00 | 0.00 | 68 | 1010.7 |
| 20260510025511 | 72 | 230 | 4.0 | 8.0 | 0.00 | 0.00 | 0.00 | 67 | 1010.7 |
| 20260510025014 | 73 | 225 | 4.0 | 8.0 | 0.00 | 0.00 | 0.00 | 67 | 1010.6 |
| 20260510024528 | 73 | 234 | 4.0 | 8.0 | 0.00 | 0.00 | 0.00 | 66 | 1010.6 |
| 20260510024014 | 74 | 230 | 4.0 | 11.0 | 0.00 | 0.00 | 0.00 | 65 | 1010.4 |
| 20260510023515 | 74 | 242 | 6.0 | 11.0 | 0.00 | 0.00 | 0.00 | 63 | 1010.4 |
| 20260510023032 | 75 | 229 | 5.0 | 10.0 | 0.00 | 0.00 | 0.00 | 62 | 1010.4 |
| 20260510022513 | 75 | 227 | 5.0 | 10.0 | 0.00 | 0.00 | 0.00 | 62 | 1010.4 |
| 20260510022014 | 76 | 245 | 5.0 | 11.0 | 0.00 | 0.00 | 0.00 | 62 | 1010.4 |
| 20260510021531 | 76 | 240 | 6.0 | 11.0 | 0.00 | 0.00 | 0.00 | 62 | 1010.4 |
| 20260510021014 | 77 | 212 | 6.0 | 11.0 | 0.00 | 0.00 | 0.00 | 62 | 1010.4 |
| 20260510020514 | 77 | 203 | 6.0 | 14.0 | 0.00 | 0.00 | 0.00 | 61 | 1010.4 |
| 20260510020028 | 78 | 213 | 7.0 | 14.0 | 0.00 | 0.00 | 0.00 | 60 | 1010.4 |
| 20260510015519 | 78 | 236 | 8.0 | 14.0 | 0.00 | 0.00 | 0.00 | 59 | 1010.5 |
| 20260510015011 | 79 | 226 | 6.0 | 12.0 | 0.00 | 0.00 | 0.00 | 60 | 1010.5 |
| 20260510014529 | 79 | 257 | 8.0 | 12.0 | 0.00 | 0.00 | 0.00 | 59 | 1010.5 |
| 20260510014013 | 79 | 232 | 8.0 | 12.0 | 0.00 | 0.00 | 0.00 | 60 | 1010.5 |
| 20260510013513 | 80 | 246 | 8.0 | 13.0 | 0.00 | 0.00 | 0.00 | 58 | 1010.5 |
| 20260510013028 | 80 | 250 | 9.0 | 13.0 | 0.00 | 0.00 | 0.00 | 57 | 1010.4 |
| 20260510012514 | 81 | 242 | 8.0 | 13.0 | 0.00 | 0.00 | 0.00 | 57 | 1010.5 |
| 20260510012014 | 81 | 225 | 7.0 | 14.0 | 0.00 | 0.00 | 0.00 | 57 | 1010.4 |
| 20260510011530 | 81 | 226 | 6.0 | 14.0 | 0.00 | 0.00 | 0.00 | 56 | 1010.4 |
| 20260510011013 | 82 | 246 | 7.0 | 13.0 | 0.00 | 0.00 | 0.00 | 55 | 1010.4 |
| 20260510010515 | 82 | 238 | 9.0 | 14.0 | 0.00 | 0.00 | 0.00 | 55 | 1010.4 |
| 20260510010027 | 82 | 238 | 8.0 | 14.0 | 0.00 | 0.00 | 0.00 | 53 | 1010.4 |
| 20260510005515 | 83 | 225 | 8.0 | 12.0 | 0.00 | 0.00 | 0.00 | 52 | 1010.4 |
| 20260510005018 | 83 | 217 | 9.0 | 13.0 | 0.00 | 0.00 | 0.00 | 52 | 1010.4 |
| 20260510004527 | 83 | 229 | 8.0 | 13.0 | 0.00 | 0.00 | 0.00 | 52 | 1010.4 |
| 20260510004013 | 83 | 259 | 8.0 | 12.0 | 0.00 | 0.00 | 0.00 | 51 | 1010.4 |
| 20260510003513 | 84 | 240 | 7.0 | 13.0 | 0.00 | 0.00 | 0.00 | 49 | 1010.4 |
| 20260510003030 | 84 | 225 | 8.0 | 13.0 | 0.00 | 0.00 | 0.00 | 50 | 1010.4 |
| 20260510002513 | 85 | 240 | 9.0 | 14.0 | 0.00 | 0.00 | 0.00 | 49 | 1010.4 |
| 20260510002012 | 84 | 225 | 9.0 | 14.0 | 0.00 | 0.00 | 0.00 | 49 | 1010.4 |
| 20260510001528 | 85 | 252 | 8.0 | 12.0 | 0.00 | 0.00 | 0.00 | 48 | 1010.3 |
| 20260510001012 | 85 | 257 | 8.0 | 12.0 | 0.00 | 0.00 | 0.00 | 50 | 1010.4 |
| 20260510000513 | 85 | 271 | 8.0 | 12.0 | 0.00 | 0.00 | 0.00 | 50 | 1010.4 |
| 20260510000034 | 85 | 220 | 9.0 | 12.0 | 0.00 | 0.00 | 0.00 | 50 | 1010.5 |
| 20260509235513 | 85 | 247 | 8.0 | 12.0 | 0.00 | 0.00 | 0.00 | 50 | 1010.6 |
| 20260509235013 | 86 | 238 | 7.0 | 11.0 | 0.00 | 0.00 | 0.00 | 49 | 1010.6 |
| 20260509234539 | 86 | 269 | 6.0 | 10.0 | 0.00 | 0.00 | 0.00 | 48 | 1010.6 |
| 20260509234016 | 86 | 294 | 6.0 | 10.0 | 0.00 | 0.00 | 0.00 | 48 | 1010.5 |
| 20260509233514 | 87 | 242 | 6.0 | 10.0 | 0.00 | 0.00 | 0.00 | 47 | 1010.6 |
| 20260509233031 | 86 | 248 | 4.0 | 10.0 | 0.00 | 0.00 | 0.00 | 47 | 1010.7 |
| 20260509232513 | 87 | 275 | 7.0 | 10.0 | 0.00 | 0.00 | 0.00 | 46 | 1010.7 |
| 20260509232019 | 87 | 320 | 4.0 | 9.0 | 0.00 | 0.00 | 0.00 | 46 | 1010.6 |
| 20260509231529 | 87 | 288 | 4.0 | 9.0 | 0.00 | 0.00 | 0.00 | 48 | 1010.7 |
| 20260509231014 | 87 | 260 | 6.0 | 9.0 | 0.00 | 0.00 | 0.00 | 47 | 1010.7 |
| 20260509230512 | 88 | 263 | 5.0 | 11.0 | 0.00 | 0.00 | 0.00 | 44 | 1010.7 |
| 20260509230031 | 87 | 294 | 6.0 | 11.0 | 0.00 | 0.00 | 0.00 | 43 | 1010.8 |
| 20260509225515 | 87 | 266 | 4.0 | 8.0 | 0.00 | 0.00 | 0.00 | 39 | 1010.9 |
| 20260509225013 | 86 | 289 | 4.0 | 8.0 | 0.00 | 0.00 | 0.00 | 42 | 1011.0 |
| 20260509224540 | 86 | 330 | 2.0 | 8.0 | 0.00 | 0.00 | 0.00 | 42 | 1011.0 |
| 20260509224014 | 87 | 267 | 3.0 | 8.0 | 0.00 | 0.00 | 0.00 | 45 | 1011.1 |
| 20260509223516 | 87 | 239 | 2.0 | 8.0 | 0.00 | 0.00 | 0.00 | 44 | 1011.2 |
| 20260509223054 | 87 | 226 | 3.0 | 8.0 | 0.00 | 0.00 | 0.00 | 45 | 1011.2 |
| 20260509222513 | 86 | 246 | 2.0 | 8.0 | 0.00 | 0.00 | 0.00 | 43 | 1011.2 |
| 20260509222011 | 87 | 266 | 3.0 | 8.0 | 0.00 | 0.00 | 0.00 | 45 | 1011.4 |
| 20260509221532 | 87 | 232 | 5.0 | 8.0 | 0.00 | 0.00 | 0.00 | 42 | 1011.4 |
| 20260509221013 | 86 | 0 | 1.0 | 8.0 | 0.00 | 0.00 | 0.00 | 45 | 1011.7 |
| 20260509220515 | 86 | 294 | 2.0 | 8.0 | 0.00 | 0.00 | 0.00 | 46 | 1011.6 |
| 20260509220027 | 86 | 252 | 1.0 | 8.0 | 0.00 | 0.00 | 0.00 | 43 | 1011.7 |
| 20260509215514 | 85 | 259 | 4.0 | 8.0 | 0.00 | 0.00 | 0.00 | 47 | 1011.7 |
| 20260509215014 | 85 | 291 | 4.0 | 10.0 | 0.00 | 0.00 | 0.00 | 47 | 1011.8 |
| 20260509214528 | 85 | 283 | 5.0 | 10.0 | 0.00 | 0.00 | 0.00 | 45 | 1011.8 |
| 20260509214014 | 84 | 262 | 3.0 | 9.0 | 0.00 | 0.00 | 0.00 | 46 | 1011.9 |
| 20260509213513 | 84 | 281 | 3.0 | 11.0 | 0.00 | 0.00 | 0.00 | 51 | 1012.0 |
| 20260509213029 | 84 | 273 | 5.0 | 11.0 | 0.00 | 0.00 | 0.00 | 53 | 1012.0 |
| 20260509212512 | 85 | 269 | 5.0 | 9.0 | 0.00 | 0.00 | 0.00 | 52 | 1012.0 |
| 20260509212011 | 84 | 323 | 4.0 | 9.0 | 0.00 | 0.00 | 0.00 | 52 | 1012.1 |
| 20260509211529 | 84 | 284 | 2.0 | 8.0 | 0.00 | 0.00 | 0.00 | 55 | 1012.1 |
| 20260509211013 | 84 | 263 | 4.0 | 10.0 | 0.00 | 0.00 | 0.00 | 52 | 1012.2 |
| 20260509210514 | 83 | 279 | 4.0 | 10.0 | 0.00 | 0.00 | 0.00 | 55 | 1012.2 |
| 20260509210030 | 83 | 275 | 2.0 | 10.0 | 0.00 | 0.00 | 0.00 | 53 | 1012.2 |
| 20260509205515 | 83 | 327 | 3.0 | 10.0 | 0.00 | 0.00 | 0.00 | 57 | 1012.3 |
| 20260509205014 | 84 | 234 | 5.0 | 10.0 | 0.00 | 0.00 | 0.00 | 58 | 1012.4 |
| 20260509204530 | 84 | 280 | 3.0 | 8.0 | 0.00 | 0.00 | 0.00 | 56 | 1012.4 |
| 20260509204017 | 84 | 263 | 3.0 | 8.0 | 0.00 | 0.00 | 0.00 | 57 | 1012.5 |
| 20260509203515 | 82 | 211 | 4.0 | 8.0 | 0.00 | 0.00 | 0.00 | 60 | 1012.6 |
| 20260509203036 | 82 | 275 | 1.0 | 7.0 | 0.00 | 0.00 | 0.00 | 59 | 1012.7 |
| 20260509202513 | 83 | 288 | 4.0 | 7.0 | 0.00 | 0.00 | 0.00 | 57 | 1012.7 |
| 20260509202016 | 84 | 235 | 4.0 | 8.0 | 0.00 | 0.00 | 0.00 | 57 | 1012.7 |
| 20260509201532 | 84 | 264 | 2.0 | 8.0 | 0.00 | 0.00 | 0.00 | 59 | 1012.7 |
| 20260509201015 | 83 | 255 | 3.0 | 8.0 | 0.00 | 0.00 | 0.00 | 59 | 1012.7 |
| 20260509200515 | 83 | 212 | 5.0 | 8.0 | 0.00 | 0.00 | 0.00 | 55 | 1012.8 |
| 20260509200032 | 83 | 212 | 2.0 | 11.0 | 0.00 | 0.00 | 0.00 | 56 | 1012.9 |
| 20260509195516 | 82 | 206 | 5.0 | 11.0 | 0.00 | 0.00 | 0.00 | 56 | 1013.0 |
| 20260509195015 | 81 | 219 | 3.0 | 8.0 | 0.00 | 0.00 | 0.00 | 58 | 1013.0 |
| 20260509194532 | 81 | 198 | 2.0 | 10.0 | 0.00 | 0.00 | 0.00 | 60 | 1013.0 |
| 20260509194013 | 82 | 229 | 5.0 | 10.0 | 0.00 | 0.00 | 0.00 | 59 | 1013.1 |
| 20260509193516 | 80 | 218 | 0.0 | 10.0 | 0.00 | 0.00 | 0.00 | 58 | 1013.1 |
| 20260509193032 | 79 | 276 | 3.0 | 10.0 | 0.00 | 0.00 | 0.00 | 58 | 1013.1 |
| 20260509192542 | 79 | 204 | 2.0 | 7.0 | 0.00 | 0.00 | 0.00 | 63 | 1013.2 |
| 20260509192014 | 79 | 217 | 2.0 | 7.0 | 0.00 | 0.00 | 0.00 | 61 | 1013.3 |
| 20260509191530 | 78 | 210 | 1.0 | 5.0 | 0.00 | 0.00 | 0.00 | 63 | 1013.3 |
| 20260509191014 | 78 | 161 | 2.0 | 8.0 | 0.00 | 0.00 | 0.00 | 59 | 1013.5 |
| 20260509190514 | 77 | 209 | 2.0 | 8.0 | 0.00 | 0.00 | 0.00 | 62 | 1013.5 |
| 20260509190031 | 77 | 242 | 1.0 | 5.0 | 0.00 | 0.00 | 0.00 | 62 | 1013.6 |
| 20260509185514 | 77 | 63 | 1.0 | 4.0 | 0.00 | 0.00 | 0.00 | 64 | 1013.6 |
| 20260509185014 | 76 | 259 | 2.0 | 7.0 | 0.00 | 0.00 | 0.00 | 63 | 1013.7 |
| 20260509184541 | 78 | 316 | 2.0 | 7.0 | 0.00 | 0.00 | 0.00 | 59 | 1013.7 |
| 20260509184014 | 77 | 215 | 3.0 | 7.0 | 0.00 | 0.00 | 0.00 | 62 | 1013.8 |
| 20260509183513 | 75 | 220 | 3.0 | 5.0 | 0.00 | 0.00 | 0.00 | 68 | 1013.8 |
| 20260509183030 | 75 | 29 | 2.0 | 4.0 | 0.00 | 0.00 | 0.00 | 64 | 1013.8 |
| 20260509182511 | 74 | 0 | 1.0 | 8.0 | 0.00 | 0.00 | 0.00 | 67 | 1013.9 |
| 20260509182015 | 74 | 244 | 2.0 | 10.0 | 0.00 | 0.00 | 0.00 | 64 | 1013.9 |
| 20260509181528 | 75 | 312 | 4.0 | 10.0 | 0.00 | 0.00 | 0.00 | 63 | 1014.0 |
| 20260509181014 | 74 | 229 | 2.0 | 9.0 | 0.00 | 0.00 | 0.00 | 66 | 1014.1 |
| 20260509180515 | 74 | 315 | 5.0 | 9.0 | 0.00 | 0.00 | 0.00 | 66 | 1014.1 |
| 20260509180035 | 74 | 252 | 3.0 | 9.0 | 0.00 | 0.00 | 0.00 | 68 | 1014.1 |
| 20260509175515 | 73 | 284 | 4.0 | 9.0 | 0.00 | 0.00 | 0.00 | 66 | 1014.1 |
| 20260509175014 | 72 | 271 | 3.0 | 8.0 | 0.00 | 0.00 | 0.00 | 67 | 1014.1 |
| 20260509174532 | 72 | 233 | 4.0 | 8.0 | 0.00 | 0.00 | 0.00 | 66 | 1014.2 |
| 20260509174014 | 72 | 227 | 4.0 | 8.0 | 0.00 | 0.00 | 0.00 | 67 | 1014.2 |
| 20260509173513 | 72 | 257 | 3.0 | 6.0 | 0.00 | 0.00 | 0.00 | 69 | 1014.2 |
| 20260509173030 | 71 | 210 | 3.0 | 7.0 | 0.00 | 0.00 | 0.00 | 68 | 1014.1 |
| 20260509172518 | 70 | 207 | 1.0 | 7.0 | 0.00 | 0.00 | 0.00 | 68 | 1014.1 |
| 20260509172015 | 70 | 169 | 3.0 | 7.0 | 0.00 | 0.00 | 0.00 | 68 | 1014.2 |
| 20260509171528 | 69 | 246 | 3.0 | 7.0 | 0.00 | 0.00 | 0.00 | 71 | 1014.1 |
| 20260509171014 | 69 | 267 | 3.0 | 9.0 | 0.00 | 0.00 | 0.00 | 70 | 1014.1 |
| 20260509170512 | 69 | 275 | 2.0 | 9.0 | 0.00 | 0.00 | 0.00 | 72 | 1014.2 |
| 20260509170045 | 69 | 264 | 3.0 | 9.0 | 0.00 | 0.00 | 0.00 | 72 | 1014.2 |
| 20260509165518 | 68 | 246 | 4.0 | 8.0 | 0.00 | 0.00 | 0.00 | 73 | 1014.2 |